Location: Holyhead Bay
(53.3667°N, 4.6667°W)
Time: 19:38:27
(UTC+00:00)

ERS-2 - Pass Details

Date: 24 November 2020
Orbit: 492 x 497 km, 98.6° (Epoch: 17 January)

Event Time Altitude Azimuth Distance (km) Brightness Sun altitude
Exits shadow 17:30:55 17° 58° (ENE) 1,325 3.6 -11.5°
Maximum altitude 17:32:35 23° 95° (E) 1,103 3.3 -11.8°
Drops below altitude 10° 17:35:33 10° 149° (SSE) 1,701 4.7 -12.2°
Sets 17:37:55 0° 165° (SSE) 2,579 5.8 -12.5°
